When you browse on this site, cookies collect data to enhance your experience and personalize the content and advertising you see.
Visit our Privacy Policy to learn more. By continuing to use the site, you agree to this use of cookies and data.
  • In Portugal
  • List of Countries
  • For 7 days
  • Water Temperature
  • Weather Map
  • Weather Widgets
  • user-avatar
    Login

    Hourly Weather Graz

    Today, 19 September, Thursday

    Time Temperature Precipitation Wind Pressure Humidity
    00:00 +11°C° 0 mm 0 mps 729 mmHg 77%
    01:00 +11°C° 0 mm 0 mps 729 mmHg 75%
    02:00 +11°C° 0 mm 1 mps 729 mmHg 76%
    03:00 +11°C° 0 mm 1 mps 729 mmHg 77%
    04:00 +10°C° 0 mm 1 mps 729 mmHg 78%
    05:00 +11°C° 0 mm 1 mps 729 mmHg 77%
    06:00 +11°C° 0 mm 1 mps 729 mmHg 76%
    07:00 +11°C° 0 mm 1 mps 729 mmHg 75%
    08:00 +13°C° 0 mm 1 mps 730 mmHg 68%
    09:00 +14°C° 0 mm 1 mps 730 mmHg 60%
    10:00 +15°C° 0 mm 1 mps 730 mmHg 53%
    11:00 +16°C° 0 mm 1 mps 730 mmHg 50%
    12:00 +18°C° 0 mm 1 mps 730 mmHg 48%
    13:00 +19°C° 0 mm 1 mps 729 mmHg 46%
    14:00 +18°C° 0 mm 1 mps 729 mmHg 47%
    15:00 +18°C° 0 mm 1 mps 729 mmHg 48%
    16:00 +17°C° 0 mm 2 mps 729 mmHg 49%
    17:00 +15°C° 0 mm 1 mps 729 mmHg 58%
    18:00 +13°C° 0 mm 1 mps 730 mmHg 66%
    19:00 +11°C° 0 mm 1 mps 730 mmHg 74%
    20:00 +10°C° 0 mm 1 mps 730 mmHg 74%
    21:00 +10°C° 0 mm 1 mps 731 mmHg 75%
    22:00 +10°C° 0 mm 1 mps 731 mmHg 76%
    23:00 +9°C° 0 mm 1 mps 731 mmHg 78%

    Tomorrow, 20 September, Friday

    Time Temperature Precipitation Wind Pressure Humidity
    00:00 +8°C° 0 mm 1 mps 731 mmHg 80%
    01:00 +8°C° 0 mm 1 mps 731 mmHg 81%
    02:00 +7°C° 0 mm 1 mps 731 mmHg 82%
    03:00 +7°C° 0 mm 1 mps 731 mmHg 83%
    04:00 +7°C° 0 mm 1 mps 731 mmHg 84%
    05:00 +7°C° 0 mm 1 mps 731 mmHg 80%
    06:00 +7°C° 0 mm 0 mps 731 mmHg 77%
    07:00 +8°C° 0 mm 0 mps 731 mmHg 74%
    08:00 +11°C° 0 mm 1 mps 731 mmHg 66%
    09:00 +13°C° 0 mm 1 mps 731 mmHg 58%
    10:00 +16°C° 0 mm 1 mps 732 mmHg 50%
    11:00 +16°C° 0 mm 1 mps 731 mmHg 47%
    12:00 +18°C° 0 mm 1 mps 731 mmHg 45%
    13:00 +18°C° 0 mm 1 mps 730 mmHg 42%
    14:00 +18°C° 0 mm 1 mps 730 mmHg 43%
    15:00 +18°C° 0 mm 1 mps 730 mmHg 45%
    16:00 +16°C° 0 mm 1 mps 729 mmHg 46%
    17:00 +14°C° 0 mm 1 mps 730 mmHg 53%
    18:00 +12°C° 0 mm 1 mps 730 mmHg 61%
    19:00 +9°C° 0 mm 0 mps 730 mmHg 68%
    20:00 +9°C° 0 mm 0 mps 730 mmHg 68%
    21:00 +8°C° 0 mm 0 mps 730 mmHg 69%
    22:00 +8°C° 0 mm 0 mps 730 mmHg 69%
    23:00 +8°C° 0 mm 0 mps 730 mmHg 70%

    Day after tomorrow, 21 September, Saturday

    Time Temperature Precipitation Wind Pressure Humidity
    00:00 +7°C° 0 mm 0 mps 730 mmHg 70%
    01:00 +7°C° 0 mm 0 mps 730 mmHg 71%
    02:00 +7°C° 0 mm 0 mps 730 mmHg 71%
    03:00 +7°C° 0 mm 0 mps 729 mmHg 72%
    04:00 +7°C° 0 mm 1 mps 729 mmHg 72%
    05:00 +8°C° 0 mm 1 mps 729 mmHg 70%
    06:00 +9°C° 0 mm 1 mps 729 mmHg 68%
    07:00 +9°C° 0 mm 0 mps 729 mmHg 66%
    08:00 +12°C° 0 mm 1 mps 729 mmHg 59%
    09:00 +14°C° 0 mm 1 mps 729 mmHg 52%
    10:00 +18°C° 0 mm 1 mps 729 mmHg 44%
    11:00 +18°C° 0 mm 1 mps 729 mmHg 43%
    12:00 +18°C° 0 mm 2 mps 728 mmHg 41%
    13:00 +19°C° 0 mm 2 mps 728 mmHg 40%
    14:00 +19°C° 0 mm 2 mps 728 mmHg 43%
    15:00 +19°C° 0 mm 2 mps 727 mmHg 45%
    16:00 +18°C° 0 mm 2 mps 727 mmHg 48%
    17:00 +16°C° 0 mm 1 mps 726 mmHg 56%
    18:00 +14°C° 0 mm 1 mps 726 mmHg 65%
    19:00 +11°C° 0 mm 1 mps 726 mmHg 73%
    20:00 +11°C° 0 mm 1 mps 726 mmHg 74%
    21:00 +10°C° 0 mm 1 mps 726 mmHg 76%
    22:00 +10°C° 0 mm 1 mps 726 mmHg 77%
    23:00 +10°C° 0 mm 1 mps 725 mmHg 78%

    22 September, Sunday

    Time Temperature Precipitation Wind Pressure Humidity
    00:00 +9°C° 0 mm 1 mps 725 mmHg 79%
    01:00 +9°C° 0 mm 1 mps 725 mmHg 81%
    02:00 +9°C° 0 mm 1 mps 724 mmHg 81%
    03:00 +9°C° 0 mm 1 mps 724 mmHg 81%
    04:00 +9°C° 0 mm 1 mps 724 mmHg 81%
    05:00 +10°C° 0 mm 1 mps 724 mmHg 79%
    06:00 +10°C° 0 mm 1 mps 724 mmHg 77%
    07:00 +11°C° 0 mm 1 mps 723 mmHg 75%
    08:00 +13°C° 0 mm 1 mps 724 mmHg 68%
    09:00 +16°C° 0 mm 1 mps 724 mmHg 61%
    10:00 +19°C° 0 mm 1 mps 724 mmHg 54%
    11:00 +20°C° 0 mm 1 mps 723 mmHg 54%
    12:00 +21°C° 0 mm 1 mps 723 mmHg 54%
    13:00 +23°C° 0 mm 1 mps 723 mmHg 54%
    14:00 +22°C° 0 mm 1 mps 722 mmHg 57%
    15:00 +22°C° 0 mm 1 mps 722 mmHg 60%
    16:00 +22°C° 0 mm 1 mps 722 mmHg 63%
    17:00 +20°C° 0 mm 1 mps 721 mmHg 71%
    18:00 +19°C° 0 mm 1 mps 721 mmHg 78%
    19:00 +16°C° 0 mm 1 mps 721 mmHg 86%
    20:00 +15°C° 0 mm 1 mps 721 mmHg 87%
    21:00 +15°C° 0 mm 1 mps 721 mmHg 89%
    22:00 +15°C° 0 mm 1 mps 721 mmHg 91%
    23:00 +14°C° 0 mm 1 mps 720 mmHg 92%

    23 September, Monday

    Time Temperature Precipitation Wind Pressure Humidity
    00:00 +14°C° 0 mm 2 mps 720 mmHg 92%
    01:00 +14°C° 0 mm 2 mps 720 mmHg 93%
    02:00 +14°C° 0 mm 2 mps 720 mmHg 93%
    03:00 +14°C° 0 mm 2 mps 720 mmHg 93%
    04:00 +14°C° 0 mm 2 mps 720 mmHg 93%
    05:00 +14°C° 0 mm 2 mps 720 mmHg 91%
    06:00 +15°C° 0 mm 2 mps 720 mmHg 89%
    07:00 +15°C° 0 mm 2 mps 720 mmHg 87%
    08:00 +18°C° 0 mm 1 mps 720 mmHg 80%
    09:00 +20°C° 0 mm 1 mps 721 mmHg 73%
    10:00 +22°C° 0 mm 1 mps 721 mmHg 66%
    11:00 +22°C° 0.3 mm 1 mps 721 mmHg 69%
    12:00 +21°C° 0.3 mm 1 mps 721 mmHg 72%
    13:00 +21°C° 0.3 mm 1 mps 721 mmHg 74%
    14:00 +18°C° 3.1 mm 2 mps 721 mmHg 81%
    15:00 +17°C° 3.1 mm 2 mps 721 mmHg 87%
    16:00 +14°C° 3.1 mm 3 mps 721 mmHg 93%
    17:00 +15°C° 0.5 mm 2 mps 721 mmHg 92%
    18:00 +14°C° 0.5 mm 2 mps 721 mmHg 91%
    19:00 +14°C° 0.5 mm 1 mps 721 mmHg 90%
    20:00 +13°C° 0.1 mm 1 mps 722 mmHg 90%
    21:00 +13°C° 0.1 mm 1 mps 722 mmHg 91%
    22:00 +13°C° 0.1 mm 1 mps 722 mmHg 91%
    23:00 +13°C° 0.1 mm 1 mps 722 mmHg 91%

    24 September, Tuesday

    Time Temperature Precipitation Wind Pressure Humidity
    00:00 +13°C° 0.1 mm 1 mps 722 mmHg 91%
    01:00 +12°C° 0.1 mm 1 mps 722 mmHg 91%
    02:00 +12°C° 0 mm 1 mps 722 mmHg 91%
    03:00 +12°C° 0 mm 1 mps 722 mmHg 91%
    04:00 +11°C° 0 mm 1 mps 722 mmHg 91%
    05:00 +11°C° 0 mm 1 mps 722 mmHg 90%
    06:00 +12°C° 0 mm 1 mps 723 mmHg 89%
    07:00 +12°C° 0 mm 1 mps 723 mmHg 89%
    08:00 +14°C° 0 mm 1 mps 723 mmHg 78%
    09:00 +16°C° 0 mm 2 mps 723 mmHg 67%
    10:00 +18°C° 0 mm 2 mps 724 mmHg 57%
    11:00 +19°C° 0 mm 2 mps 723 mmHg 51%
    12:00 +20°C° 0 mm 2 mps 723 mmHg 45%
    13:00 +21°C° 0 mm 2 mps 723 mmHg 40%
    14:00 +21°C° 0 mm 2 mps 723 mmHg 42%
    15:00 +20°C° 0 mm 2 mps 723 mmHg 45%
    16:00 +21°C° 0 mm 1 mps 722 mmHg 48%
    17:00 +19°C° 0 mm 1 mps 722 mmHg 55%
    18:00 +16°C° 0 mm 1 mps 722 mmHg 62%
    19:00 +14°C° 0 mm 1 mps 722 mmHg 69%
    20:00 +13°C° 0 mm 1 mps 723 mmHg 70%
    21:00 +13°C° 0 mm 1 mps 723 mmHg 72%
    22:00 +12°C° 0 mm 1 mps 723 mmHg 73%
    23:00 +13°C° 0 mm 1 mps 723 mmHg 73%
    Show more